Time,TemperatureF,DewpointF,PressureIn,WindDirection,WindDirectionDegrees,WindSpeedMPH,WindSpeedGustMPH,Humidity,HourlyPrecipIn,Conditions,Clouds,dailyrainin,SolarRadiationWatts/m^2,SoftwareType,DateUTC
2013-05-22 00:04:00,53.3,48.9,30.07,South,169,0.0,5.0,85,0.00,,,0.00,0.0,WUHU216DAVISVP2,2013-05-21 23:04:00,
2013-05-22 00:09:00,53.3,48.9,30.07,SSE,166,0.0,4.0,85,0.00,,,0.00,0.0,WUHU216DAVISVP2,2013-05-21 23:09:00,
2013-05-22 00:14:00,53.2,48.8,30.07,SSE,164,0.0,4.0,85,0.00,,,0.00,0.0,WUHU216DAVISVP2,2013-05-21 23:14:00,
2013-05-22 00:19:00,53.1,48.7,30.07,SSW,202,0.0,4.0,85,0.00,,,0.00,0.0,WUHU216DAVISVP2,2013-05-21 23:19:00,
2013-05-22 00:24:00,53.1,48.7,30.07,SSE,148,0.0,4.0,85,0.00,,,0.00,0.0,WUHU216DAVISVP2,2013-05-21 23:24:00,
2013-05-22 00:29:00,53.0,48.3,30.07,South,181,1.0,7.0,84,0.00,,,0.00,0.0,WUHU216DAVISVP2,2013-05-21 23:29:00,
2013-05-22 00:34:00,52.8,48.4,30.07,SSE,166,0.0,7.0,85,0.00,,,0.00,0.0,WUHU216DAVISVP2,2013-05-21 23:34:00,
2013-05-22 00:39:00,52.7,48.3,30.07,SSE,157,0.0,7.0,85,0.00,,,0.00,0.0,WUHU216DAVISVP2,2013-05-21 23:39:00,
2013-05-22 00:44:00,52.6,48.2,30.07,South,184,0.0,7.0,85,0.00,,,0.00,0.0,WUHU216DAVISVP2,2013-05-21 23:44:00,
2013-05-22 00:49:00,52.5,48.1,30.07,SE,134,0.0,7.0,85,0.00,,,0.00,0.0,WUHU216DAVISVP2,2013-05-21 23:49:00,
2013-05-22 00:54:00,52.4,48.0,30.07,SSE,148,0.0,7.0,85,0.00,,,0.00,0.0,WUHU216DAVISVP2,2013-05-21 23:54:00,
2013-05-22 00:59:00,52.3,48.2,30.07,SSE,153,0.0,7.0,86,0.00,,,0.00,0.0,WUHU216DAVISVP2,2013-05-21 23:59:00,
2013-05-22 01:04:00,52.3,48.2,30.07,South,173,0.0,5.0,86,0.00,,,0.00,0.0,WUHU216DAVISVP2,2013-05-22 00:04:00,
2013-05-22 01:09:00,52.2,48.1,30.07,South,171,0.0,5.0,86,0.00,,,0.00,0.0,WUHU216DAVISVP2,2013-05-22 00:09:00,
2013-05-22 01:14:00,52.1,48.0,30.07,South,178,0.0,5.0,86,0.00,,,0.00,0.0,WUHU216DAVISVP2,2013-05-22 00:14:00,
2013-05-22 01:19:00,52.1,48.0,30.07,SSE,168,0.0,5.0,86,0.00,,,0.00,0.0,WUHU216DAVISVP2,2013-05-22 00:19:00,
2013-05-22 01:24:00,52.0,47.9,30.07,SSW,200,0.0,4.0,86,0.00,,,0.00,0.0,WUHU216DAVISVP2,2013-05-22 00:24:00,
2013-05-22 01:29:00,52.0,47.9,30.07,SSW,193,0.0,4.0,86,0.00,,,0.00,0.0,WUHU216DAVISVP2,2013-05-22 00:29:00,
2013-05-22 01:34:00,51.9,47.8,30.07,SSW,193,0.0,4.0,86,0.00,,,0.00,0.0,WUHU216DAVISVP2,2013-05-22 00:34:00,
2013-05-22 01:39:00,51.8,47.7,30.07,SSW,193,0.0,4.0,86,0.00,,,0.00,0.0,WUHU216DAVISVP2,2013-05-22 00:39:00,
2013-05-22 01:44:00,51.8,47.4,30.07,SSW,193,0.0,0.0,85,0.00,,,0.00,0.0,WUHU216DAVISVP2,2013-05-22 00:44:00,
2013-05-22 01:49:00,51.6,46.9,30.07,SSW,193,0.0,0.0,84,0.00,,,0.00,0.0,WUHU216DAVISVP2,2013-05-22 00:49:00,
2013-05-22 01:54:00,51.5,46.8,30.07,SSW,193,0.0,0.0,84,0.00,,,0.00,0.0,WUHU216DAVISVP2,2013-05-22 00:54:00,
2013-05-22 01:59:00,51.5,46.8,30.07,SSW,193,0.0,0.0,84,0.00,,,0.00,0.0,WUHU216DAVISVP2,2013-05-22 00:59:00,
2013-05-22 02:04:00,51.4,46.7,30.07,SSW,193,0.0,0.0,84,0.00,,,0.00,0.0,WUHU216DAVISVP2,2013-05-22 01:04:00,
2013-05-22 02:09:00,51.3,46.6,30.07,SSW,193,0.0,0.0,84,0.00,,,0.00,0.0,WUHU216DAVISVP2,2013-05-22 01:09:00,
2013-05-22 02:14:00,51.3,46.9,30.07,SSW,193,0.0,0.0,85,0.00,,,0.00,0.0,WUHU216DAVISVP2,2013-05-22 01:14:00,
2013-05-22 02:19:00,51.3,46.6,30.07,SSW,193,0.0,0.0,84,0.00,,,0.00,0.0,WUHU216DAVISVP2,2013-05-22 01:19:00,
2013-05-22 02:24:00,51.3,46.6,30.07,SSW,193,0.0,0.0,84,0.00,,,0.00,0.0,WUHU216DAVISVP2,2013-05-22 01:24:00,
2013-05-22 02:29:00,51.2,46.5,30.07,SSW,193,0.0,0.0,84,0.00,,,0.00,0.0,WUHU216DAVISVP2,2013-05-22 01:29:00,
2013-05-22 02:34:00,51.2,46.8,30.07,SSW,193,0.0,0.0,85,0.00,,,0.00,0.0,WUHU216DAVISVP2,2013-05-22 01:34:00,
2013-05-22 02:39:00,51.1,46.7,30.07,SSW,193,0.0,0.0,85,0.00,,,0.00,0.0,WUHU216DAVISVP2,2013-05-22 01:39:00,
2013-05-22 02:44:00,51.0,46.6,30.07,SSW,193,0.0,0.0,85,0.00,,,0.00,0.0,WUHU216DAVISVP2,2013-05-22 01:44:00,
2013-05-22 02:49:00,51.0,46.6,30.07,SSW,193,0.0,0.0,85,0.00,,,0.00,0.0,WUHU216DAVISVP2,2013-05-22 01:49:00,
2013-05-22 02:54:00,51.0,46.9,30.07,SSW,193,0.0,0.0,86,0.00,,,0.00,0.0,WUHU216DAVISVP2,2013-05-22 01:54:00,
2013-05-22 02:59:00,50.9,46.8,30.07,SSW,193,0.0,0.0,86,0.00,,,0.00,0.0,WUHU216DAVISVP2,2013-05-22 01:59:00,
2013-05-22 03:04:00,50.9,47.1,30.07,SSW,193,0.0,0.0,87,0.00,,,0.00,0.0,WUHU216DAVISVP2,2013-05-22 02:04:00,
2013-05-22 03:09:00,50.9,46.8,30.07,SSW,193,0.0,0.0,86,0.00,,,0.00,0.0,WUHU216DAVISVP2,2013-05-22 02:09:00,
2013-05-22 03:14:00,50.8,46.7,30.07,SSW,193,0.0,0.0,86,0.00,,,0.00,0.0,WUHU216DAVISVP2,2013-05-22 02:14:00,
2013-05-22 03:19:00,50.8,47.1,30.07,SSW,193,0.0,0.0,87,0.00,,,0.00,0.0,WUHU216DAVISVP2,2013-05-22 02:19:00,
2013-05-22 03:24:00,50.7,47.0,30.07,SSW,193,0.0,0.0,87,0.00,,,0.00,0.0,WUHU216DAVISVP2,2013-05-22 02:24:00,
2013-05-22 03:29:00,50.7,47.0,30.07,SSW,193,0.0,0.0,87,0.00,,,0.00,0.0,WUHU216DAVISVP2,2013-05-22 02:29:00,
2013-05-22 03:34:00,50.6,46.9,30.07,SSW,193,0.0,0.0,87,0.00,,,0.00,0.0,WUHU216DAVISVP2,2013-05-22 02:34:00,
2013-05-22 03:39:00,50.6,46.9,30.07,SSW,193,0.0,0.0,87,0.00,,,0.00,0.0,WUHU216DAVISVP2,2013-05-22 02:39:00,
2013-05-22 03:44:00,50.6,46.9,30.07,SSW,193,0.0,0.0,87,0.00,,,0.00,0.0,WUHU216DAVISVP2,2013-05-22 02:44:00,
2013-05-22 03:49:00,50.5,46.8,30.07,SSW,193,0.0,0.0,87,0.00,,,0.00,0.0,WUHU216DAVISVP2,2013-05-22 02:49:00,
2013-05-22 03:54:00,50.5,46.8,30.07,SSW,193,0.0,0.0,87,0.00,,,0.00,0.0,WUHU216DAVISVP2,2013-05-22 02:54:00,
2013-05-22 03:59:00,50.4,46.4,30.07,SE,144,0.0,4.0,86,0.00,,,0.00,0.0,WUHU216DAVISVP2,2013-05-22 02:59:00,
2013-05-22 04:04:00,50.3,46.3,30.07,SSE,166,1.0,4.0,86,0.00,,,0.00,0.0,WUHU216DAVISVP2,2013-05-22 03:04:00,
2013-05-22 04:09:00,50.2,46.2,30.07,South,171,0.0,4.0,86,0.00,,,0.00,0.0,WUHU216DAVISVP2,2013-05-22 03:09:00,
2013-05-22 04:14:00,50.2,46.2,30.07,South,171,0.0,4.0,86,0.00,,,0.00,0.0,WUHU216DAVISVP2,2013-05-22 03:14:00,
2013-05-22 04:19:00,50.1,46.1,30.07,South,171,0.0,2.0,86,0.00,,,0.00,0.0,WUHU216DAVISVP2,2013-05-22 03:19:00,
2013-05-22 04:24:00,50.1,46.1,30.07,South,171,0.0,2.0,86,0.00,,,0.00,0.0,WUHU216DAVISVP2,2013-05-22 03:24:00,
2013-05-22 04:29:00,50.1,46.4,30.07,South,171,0.0,2.0,87,0.00,,,0.00,0.0,WUHU216DAVISVP2,2013-05-22 03:29:00,
2013-05-22 04:34:00,50.1,46.7,30.07,South,171,0.0,2.0,88,0.00,,,0.00,0.0,WUHU216DAVISVP2,2013-05-22 03:34:00,
2013-05-22 04:39:00,50.1,46.7,30.07,South,171,0.0,2.0,88,0.00,,,0.00,0.0,WUHU216DAVISVP2,2013-05-22 03:39:00,
2013-05-22 04:44:00,50.1,47.0,30.07,South,171,0.0,0.0,89,0.00,,,0.00,0.0,WUHU216DAVISVP2,2013-05-22 03:44:00,
2013-05-22 04:49:00,50.1,47.3,30.07,South,171,0.0,0.0,90,0.00,,,0.00,0.0,WUHU216DAVISVP2,2013-05-22 03:49:00,
2013-05-22 04:54:00,50.0,47.2,30.07,South,171,0.0,1.0,90,0.00,,,0.00,0.0,WUHU216DAVISVP2,2013-05-22 03:54:00,
2013-05-22 04:59:00,49.9,47.1,30.07,South,171,0.0,1.0,90,0.00,,,0.00,0.0,WUHU216DAVISVP2,2013-05-22 03:59:00,
2013-05-22 05:01:00,49.9,47.1,30.07,South,171,0.0,1.0,90,0.00,,,0.00,0.0,WUHU216DAVISVP2,2013-05-22 04:01:00,
2013-05-22 05:06:00,49.8,47.2,30.07,South,171,0.0,1.0,91,0.00,,,0.00,0.0,WUHU216DAVISVP2,2013-05-22 04:06:00,
2013-05-22 05:11:00,49.7,47.1,30.07,South,171,0.0,1.0,91,0.00,,,0.00,0.0,WUHU216DAVISVP2,2013-05-22 04:11:00,
2013-05-22 05:16:00,49.6,47.3,30.07,South,171,0.0,0.0,92,0.00,,,0.00,0.0,WUHU216DAVISVP2,2013-05-22 04:16:00,
2013-05-22 05:21:00,49.5,47.2,30.07,South,171,0.0,0.0,92,0.00,,,0.00,0.0,WUHU216DAVISVP2,2013-05-22 04:21:00,
2013-05-22 05:26:00,49.4,47.1,30.07,South,171,0.0,0.0,92,0.00,,,0.00,0.0,WUHU216DAVISVP2,2013-05-22 04:26:00,
2013-05-22 05:31:00,49.3,47.0,30.07,South,171,0.0,0.0,92,0.00,,,0.00,0.0,WUHU216DAVISVP2,2013-05-22 04:31:00,
2013-05-22 05:36:00,49.2,46.9,30.07,South,171,0.0,0.0,92,0.00,,,0.00,0.0,WUHU216DAVISVP2,2013-05-22 04:36:00,
2013-05-22 05:41:00,49.1,46.8,30.07,South,171,0.0,0.0,92,0.00,,,0.00,0.0,WUHU216DAVISVP2,2013-05-22 04:41:00,
2013-05-22 05:46:00,49.0,46.7,30.07,South,171,0.0,0.0,92,0.00,,,0.00,5.0,WUHU216DAVISVP2,2013-05-22 04:46:00,
2013-05-22 05:51:00,49.0,47.0,30.07,South,171,0.0,0.0,93,0.00,,,0.00,5.0,WUHU216DAVISVP2,2013-05-22 04:51:00,
2013-05-22 05:56:00,48.9,46.9,30.07,South,171,0.0,0.0,93,0.00,,,0.00,5.0,WUHU216DAVISVP2,2013-05-22 04:56:00,
2013-05-22 06:01:00,48.9,46.9,30.07,South,176,0.0,0.0,93,0.00,,,0.00,9.0,WUHU216DAVISVP2,2013-05-22 05:01:00,
2013-05-22 06:06:00,48.9,46.9,30.07,South,176,0.0,1.0,93,0.00,,,0.00,11.0,WUHU216DAVISVP2,2013-05-22 05:06:00,
2013-05-22 06:11:00,48.8,46.8,30.07,South,176,0.0,1.0,93,0.00,,,0.00,12.0,WUHU216DAVISVP2,2013-05-22 05:11:00,
2013-05-22 06:16:00,48.8,46.8,30.07,South,183,0.0,1.0,93,0.00,,,0.00,14.0,WUHU216DAVISVP2,2013-05-22 05:16:00,
2013-05-22 06:21:00,48.8,46.8,30.07,SSW,194,0.0,1.0,93,0.00,,,0.00,12.0,WUHU216DAVISVP2,2013-05-22 05:21:00,
2013-05-22 06:26:00,48.8,47.1,30.07,SSW,194,0.0,0.0,94,0.00,,,0.00,12.0,WUHU216DAVISVP2,2013-05-22 05:26:00,
2013-05-22 06:31:00,48.9,47.2,30.08,SSW,194,0.0,2.0,94,0.00,,,0.00,12.0,WUHU216DAVISVP2,2013-05-22 05:31:00,
2013-05-22 06:36:00,48.9,47.2,30.08,WSW,239,0.0,2.0,94,0.00,,,0.00,16.0,WUHU216DAVISVP2,2013-05-22 05:36:00,
2013-05-22 06:41:00,49.0,47.3,30.08,SSW,208,1.0,2.0,94,0.00,,,0.00,11.0,WUHU216DAVISVP2,2013-05-22 05:41:00,
2013-05-22 06:46:00,49.0,47.3,30.08,SSW,193,0.0,2.0,94,0.00,,,0.00,18.0,WUHU216DAVISVP2,2013-05-22 05:46:00,
2013-05-22 06:51:00,49.1,47.4,30.08,SSW,193,0.0,2.0,94,0.00,,,0.00,18.0,WUHU216DAVISVP2,2013-05-22 05:51:00,
2013-05-22 06:56:00,49.1,47.4,30.08,SSE,156,0.0,4.0,94,0.00,,,0.00,18.0,WUHU216DAVISVP2,2013-05-22 05:56:00,
2013-05-22 07:01:00,49.2,47.5,30.08,SSW,194,0.0,4.0,94,0.00,,,0.00,18.0,WUHU216DAVISVP2,2013-05-22 06:01:00,
2013-05-22 07:06:00,49.2,47.2,30.08,South,178,0.0,4.0,93,0.00,,,0.00,21.0,WUHU216DAVISVP2,2013-05-22 06:06:00,
2013-05-22 07:11:00,49.2,47.2,30.08,South,185,0.0,4.0,93,0.00,,,0.00,25.0,WUHU216DAVISVP2,2013-05-22 06:11:00,
2013-05-22 07:16:00,49.2,47.2,30.08,South,185,0.0,2.0,93,0.00,,,0.00,26.0,WUHU216DAVISVP2,2013-05-22 06:16:00,
2013-05-22 07:21:00,49.3,47.3,30.08,SW,215,0.0,4.0,93,0.00,,,0.00,26.0,WUHU216DAVISVP2,2013-05-22 06:21:00,
2013-05-22 07:26:00,49.3,47.0,30.08,SSW,213,0.0,4.0,92,0.00,,,0.00,33.0,WUHU216DAVISVP2,2013-05-22 06:26:00,
2013-05-22 07:31:00,49.4,47.1,30.08,SSW,193,0.0,4.0,92,0.00,,,0.00,32.0,WUHU216DAVISVP2,2013-05-22 06:31:00,
2013-05-22 07:36:00,49.5,47.2,30.08,WSW,242,1.0,4.0,92,0.00,,,0.00,44.0,WUHU216DAVISVP2,2013-05-22 06:36:00,
2013-05-22 07:41:00,49.6,47.0,30.08,ESE,103,0.0,4.0,91,0.00,,,0.00,53.0,WUHU216DAVISVP2,2013-05-22 06:41:00,
2013-05-22 07:46:00,49.6,46.7,30.08,SW,216,1.0,5.0,90,0.00,,,0.00,54.0,WUHU216DAVISVP2,2013-05-22 06:46:00,
2013-05-22 07:51:00,49.6,46.5,30.09,SSW,192,1.0,6.0,89,0.00,,,0.00,47.0,WUHU216DAVISVP2,2013-05-22 06:51:00,
2013-05-22 07:56:00,49.7,46.6,30.09,South,178,1.0,6.0,89,0.00,,,0.00,46.0,WUHU216DAVISVP2,2013-05-22 06:56:00,
2013-05-22 08:01:00,49.8,46.7,30.09,West,281,0.0,6.0,89,0.00,,,0.00,39.0,WUHU216DAVISVP2,2013-05-22 07:01:00,
2013-05-22 08:06:00,49.8,46.7,30.09,SSW,193,4.0,6.0,89,0.00,,,0.00,39.0,WUHU216DAVISVP2,2013-05-22 07:06:00,
2013-05-22 08:11:00,49.8,46.7,30.09,SSW,193,4.0,6.0,89,0.00,,,0.00,39.0,WUHU216DAVISVP2,2013-05-22 07:11:00,
2013-05-22 08:16:00,50.0,46.3,30.09,South,173,0.0,6.0,87,0.00,,,0.00,65.0,WUHU216DAVISVP2,2013-05-22 07:16:00,
2013-05-22 08:21:00,50.0,46.3,30.09,South,184,1.0,6.0,87,0.00,,,0.00,65.0,WUHU216DAVISVP2,2013-05-22 07:21:00,
2013-05-22 08:26:00,50.2,46.5,30.09,South,186,0.0,5.0,87,0.00,,,0.00,83.0,WUHU216DAVISVP2,2013-05-22 07:26:00,
2013-05-22 08:31:00,50.4,46.7,30.09,SW,215,0.0,5.0,87,0.00,,,0.00,76.0,WUHU216DAVISVP2,2013-05-22 07:31:00,
2013-05-22 08:36:00,50.5,46.5,30.09,SSE,166,1.0,6.0,86,0.00,,,0.00,76.0,WUHU216DAVISVP2,2013-05-22 07:36:00,
2013-05-22 08:41:00,50.5,46.2,30.09,West,262,1.0,6.0,85,0.00,,,0.00,65.0,WUHU216DAVISVP2,2013-05-22 07:41:00,
2013-05-22 08:46:00,50.6,46.3,30.09,SSE,153,4.0,7.0,85,0.00,,,0.00,77.0,WUHU216DAVISVP2,2013-05-22 07:46:00,
2013-05-22 08:51:00,50.7,46.7,30.09,SSE,166,0.0,7.0,86,0.00,,,0.00,95.0,WUHU216DAVISVP2,2013-05-22 07:51:00,
2013-05-22 08:56:00,50.9,46.5,30.09,South,179,0.0,7.0,85,0.00,,,0.00,91.0,WUHU216DAVISVP2,2013-05-22 07:56:00,
2013-05-22 09:01:00,51.1,47.0,30.10,SE,139,0.0,7.0,86,0.00,,,0.00,97.0,WUHU216DAVISVP2,2013-05-22 08:01:00,
2013-05-22 09:06:00,51.2,46.5,30.09,SE,142,0.0,7.0,84,0.00,,,0.00,97.0,WUHU216DAVISVP2,2013-05-22 08:06:00,
2013-05-22 09:11:00,51.3,46.6,30.09,SSE,160,0.0,7.0,84,0.00,,,0.00,63.0,WUHU216DAVISVP2,2013-05-22 08:11:00,
2013-05-22 09:16:00,51.3,46.3,30.09,South,180,0.0,7.0,83,0.00,,,0.00,81.0,WUHU216DAVISVP2,2013-05-22 08:16:00,
2013-05-22 09:21:00,51.3,46.3,30.09,SSW,196,1.0,6.0,83,0.00,,,0.00,84.0,WUHU216DAVISVP2,2013-05-22 08:21:00,
2013-05-22 09:26:00,51.3,46.3,30.09,South,174,1.0,6.0,83,0.00,,,0.00,86.0,WUHU216DAVISVP2,2013-05-22 08:26:00,
2013-05-22 09:31:00,51.4,46.4,30.09,SSE,159,6.0,7.0,83,0.00,,,0.00,86.0,WUHU216DAVISVP2,2013-05-22 08:31:00,
2013-05-22 09:36:00,51.5,46.5,30.09,East,101,4.0,7.0,83,0.00,,,0.00,91.0,WUHU216DAVISVP2,2013-05-22 08:36:00,
2013-05-22 09:41:00,51.6,46.6,30.09,SSE,160,0.0,7.0,83,0.00,,,0.00,79.0,WUHU216DAVISVP2,2013-05-22 08:41:00,
2013-05-22 09:46:00,51.8,46.8,30.09,SW,223,0.0,7.0,83,0.00,,,0.00,77.0,WUHU216DAVISVP2,2013-05-22 08:46:00,
2013-05-22 09:51:00,51.8,46.5,30.09,SSW,213,4.0,6.0,82,0.00,,,0.00,95.0,WUHU216DAVISVP2,2013-05-22 08:51:00,
2013-05-22 09:56:00,51.9,46.6,30.09,SSW,211,0.0,6.0,82,0.00,,,0.00,111.0,WUHU216DAVISVP2,2013-05-22 08:56:00,
2013-05-22 10:01:00,52.1,46.8,30.09,NNE,22,1.0,6.0,82,0.00,,,0.00,104.0,WUHU216DAVISVP2,2013-05-22 09:01:00,
2013-05-22 10:06:00,52.3,47.0,30.09,NW,320,1.0,7.0,82,0.00,,,0.00,109.0,WUHU216DAVISVP2,2013-05-22 09:06:00,
2013-05-22 10:11:00,52.4,46.8,30.09,South,175,0.0,7.0,81,0.00,,,0.00,95.0,WUHU216DAVISVP2,2013-05-22 09:11:00,
2013-05-22 10:16:00,52.5,46.9,30.09,SW,216,5.0,7.0,81,0.00,,,0.00,118.0,WUHU216DAVISVP2,2013-05-22 09:16:00,
2013-05-22 10:21:00,52.6,47.0,30.09,SSW,200,0.0,7.0,81,0.00,,,0.00,125.0,WUHU216DAVISVP2,2013-05-22 09:21:00,
2013-05-22 10:26:00,52.8,47.2,30.09,SSE,160,1.0,7.0,81,0.00,,,0.00,130.0,WUHU216DAVISVP2,2013-05-22 09:26:00,
2013-05-22 10:31:00,52.8,47.2,30.09,SSE,160,1.0,7.0,81,0.00,,,0.00,130.0,WUHU216DAVISVP2,2013-05-22 09:31:00,
2013-05-22 10:36:00,53.3,47.3,30.10,South,176,0.0,8.0,80,0.00,,,0.00,100.0,WUHU216DAVISVP2,2013-05-22 09:36:00,
2013-05-22 10:41:00,53.4,47.1,30.10,South,180,2.0,8.0,79,0.00,,,0.00,105.0,WUHU216DAVISVP2,2013-05-22 09:41:00,
2013-05-22 10:46:00,53.5,47.2,30.09,SSE,164,2.0,10.0,79,0.00,,,0.00,109.0,WUHU216DAVISVP2,2013-05-22 09:46:00,
2013-05-22 10:51:00,53.6,47.3,30.09,SSW,192,1.0,10.0,79,0.00,,,0.00,98.0,WUHU216DAVISVP2,2013-05-22 09:51:00,
2013-05-22 10:56:00,53.6,47.2,30.09,SSE,161,5.0,10.0,79,0.00,,,0.00,90.0,WUHU216DAVISVP2,2013-05-22 09:56:00,
2013-05-22 11:01:00,53.6,47.3,30.10,WSW,244,0.0,10.0,79,0.00,,,0.00,74.0,WUHU216DAVISVP2,2013-05-22 10:01:00,
2013-05-22 11:06:00,53.7,47.4,30.10,SE,142,0.0,8.0,79,0.00,,,0.00,67.0,WUHU216DAVISVP2,2013-05-22 10:06:00,
2013-05-22 11:11:00,53.7,47.4,30.10,SSE,159,0.0,8.0,79,0.00,,,0.00,58.0,WUHU216DAVISVP2,2013-05-22 10:11:00,
2013-05-22 11:16:00,53.7,47.7,30.10,South,188,0.0,6.0,80,0.00,,,0.00,72.0,WUHU216DAVISVP2,2013-05-22 10:16:00,
2013-05-22 11:21:00,53.7,47.4,30.10,SSE,158,0.0,6.0,79,0.00,,,0.00,88.0,WUHU216DAVISVP2,2013-05-22 10:21:00,
2013-05-22 11:26:00,53.7,47.4,30.10,South,178,0.0,5.0,79,0.00,,,0.00,95.0,WUHU216DAVISVP2,2013-05-22 10:26:00,
2013-05-22 11:31:00,53.7,47.4,30.09,SSW,211,0.0,6.0,79,0.00,,,0.00,84.0,WUHU216DAVISVP2,2013-05-22 10:31:00,
2013-05-22 11:36:00,53.7,47.4,30.09,SSE,159,3.0,9.0,79,0.00,,,0.00,84.0,WUHU216DAVISVP2,2013-05-22 10:36:00,
2013-05-22 11:41:00,53.7,47.4,30.09,SSE,159,0.0,9.0,79,0.00,,,0.00,84.0,WUHU216DAVISVP2,2013-05-22 10:41:00,
2013-05-22 11:46:00,53.7,47.4,30.09,SSE,165,0.0,9.0,79,0.00,,,0.00,76.0,WUHU216DAVISVP2,2013-05-22 10:46:00,
2013-05-22 11:51:00,53.7,47.4,30.10,SW,219,2.0,6.0,79,0.00,,,0.00,74.0,WUHU216DAVISVP2,2013-05-22 10:51:00,
2013-05-22 11:56:00,53.7,47.4,30.10,SW,219,2.0,6.0,79,0.00,,,0.00,74.0,WUHU216DAVISVP2,2013-05-22 10:56:00,
2013-05-22 12:01:00,53.6,46.9,30.10,SE,146,1.0,7.0,78,0.00,,,0.00,74.0,WUHU216DAVISVP2,2013-05-22 11:01:00,
2013-05-22 12:06:00,53.6,47.0,30.10,South,185,0.0,7.0,78,0.00,,,0.00,76.0,WUHU216DAVISVP2,2013-05-22 11:06:00,
2013-05-22 12:11:00,53.6,47.3,30.10,SW,217,0.0,7.0,79,0.00,,,0.00,88.0,WUHU216DAVISVP2,2013-05-22 11:11:00,
2013-05-22 12:16:00,53.6,47.6,30.10,WSW,237,1.0,7.0,80,0.00,,,0.00,79.0,WUHU216DAVISVP2,2013-05-22 11:16:00,
2013-05-22 12:21:00,53.7,47.3,30.10,SSW,202,4.0,7.0,79,0.00,,,0.00,114.0,WUHU216DAVISVP2,2013-05-22 11:21:00,
2013-05-22 12:26:00,53.8,47.4,30.10,SSE,166,2.0,8.0,79,0.00,,,0.00,148.0,WUHU216DAVISVP2,2013-05-22 11:26:00,
2013-05-22 12:31:00,54.0,47.7,30.10,SW,228,6.0,8.0,79,0.00,,,0.00,114.0,WUHU216DAVISVP2,2013-05-22 11:31:00,
2013-05-22 12:36:00,54.0,47.7,30.10,South,182,0.0,8.0,79,0.00,,,0.00,120.0,WUHU216DAVISVP2,2013-05-22 11:36:00,
2013-05-22 12:41:00,54.0,47.7,30.10,South,182,0.0,8.0,79,0.00,,,0.00,120.0,WUHU216DAVISVP2,2013-05-22 11:41:00,
2013-05-22 12:46:00,54.3,47.6,30.09,South,185,4.0,8.0,78,0.00,,,0.00,100.0,WUHU216DAVISVP2,2013-05-22 11:46:00,
2013-05-22 12:51:00,54.4,47.7,30.10,South,181,5.0,8.0,78,0.00,,,0.00,74.0,WUHU216DAVISVP2,2013-05-22 11:51:00,
2013-05-22 12:56:00,54.3,47.3,30.09,SSW,201,4.0,7.0,77,0.00,,,0.00,88.0,WUHU216DAVISVP2,2013-05-22 11:56:00,
2013-05-22 13:02:00,54.1,47.5,30.10,SSW,198,1.0,9.0,78,0.00,,,0.00,88.0,WUHU216DAVISVP2,2013-05-22 12:02:00,
2013-05-22 13:07:00,54.1,47.5,30.10,SW,224,5.0,9.0,78,0.00,,,0.00,79.0,WUHU216DAVISVP2,2013-05-22 12:07:00,
2013-05-22 13:12:00,53.9,47.3,30.10,ESE,105,4.0,11.0,78,0.00,,,0.00,125.0,WUHU216DAVISVP2,2013-05-22 12:12:00,
2013-05-22 13:17:00,54.0,47.7,30.10,South,180,2.0,11.0,79,0.00,,,0.00,111.0,WUHU216DAVISVP2,2013-05-22 12:17:00,
2013-05-22 13:22:00,54.2,47.5,30.10,WSW,238,1.0,11.0,78,0.00,,,0.00,107.0,WUHU216DAVISVP2,2013-05-22 12:22:00,
2013-05-22 13:27:00,54.2,47.5,30.10,SSW,194,1.0,13.0,78,0.00,,,0.00,65.0,WUHU216DAVISVP2,2013-05-22 12:27:00,
2013-05-22 13:32:00,54.1,47.1,30.10,SSW,202,6.0,13.0,77,0.00,,,0.00,67.0,WUHU216DAVISVP2,2013-05-22 12:32:00,
2013-05-22 13:37:00,53.9,46.9,30.10,South,181,3.0,13.0,77,0.00,,,0.00,118.0,WUHU216DAVISVP2,2013-05-22 12:37:00,
2013-05-22 13:42:00,53.9,46.9,30.10,South,180,5.0,13.0,77,0.00,,,0.00,118.0,WUHU216DAVISVP2,2013-05-22 12:42:00,
2013-05-22 13:47:00,54.0,47.0,30.10,SSE,167,5.0,9.0,77,0.00,,,0.00,60.0,WUHU216DAVISVP2,2013-05-22 12:47:00,
2013-05-22 13:52:00,53.9,46.9,30.10,WSW,238,1.0,9.0,77,0.00,,,0.00,74.0,WUHU216DAVISVP2,2013-05-22 12:52:00,
2013-05-22 13:57:00,53.7,46.7,30.10,South,181,5.0,9.0,77,0.00,,,0.00,88.0,WUHU216DAVISVP2,2013-05-22 12:57:00,
2013-05-22 14:02:00,53.6,47.3,30.10,SW,215,0.0,9.0,79,0.00,,,0.00,105.0,WUHU216DAVISVP2,2013-05-22 13:02:00,
2013-05-22 14:07:00,53.6,47.0,30.09,WSW,246,1.0,9.0,78,0.00,,,0.00,86.0,WUHU216DAVISVP2,2013-05-22 13:07:00,
2013-05-22 14:12:00,53.6,47.3,30.09,SSW,194,0.0,8.0,79,0.00,,,0.00,100.0,WUHU216DAVISVP2,2013-05-22 13:12:00,
2013-05-22 14:17:00,53.8,46.8,30.09,SSE,159,0.0,8.0,77,0.00,,,0.00,105.0,WUHU216DAVISVP2,2013-05-22 13:17:00,
2013-05-22 14:22:00,53.9,46.9,30.09,ESE,105,3.0,8.0,77,0.00,,,0.00,113.0,WUHU216DAVISVP2,2013-05-22 13:22:00,
2013-05-22 14:27:00,54.0,47.0,30.09,South,188,0.0,8.0,77,0.00,,,0.00,70.0,WUHU216DAVISVP2,2013-05-22 13:27:00,
2013-05-22 14:32:00,54.1,46.8,30.09,South,184,3.0,8.0,76,0.00,,,0.00,74.0,WUHU216DAVISVP2,2013-05-22 13:32:00,
2013-05-22 14:38:00,54.1,46.8,30.09,South,188,4.0,7.0,76,0.00,,,0.00,109.0,WUHU216DAVISVP2,2013-05-22 13:38:00,
2013-05-22 14:43:00,54.1,46.4,30.09,South,180,0.0,8.0,75,0.00,,,0.00,130.0,WUHU216DAVISVP2,2013-05-22 13:43:00,
2013-05-22 14:48:00,54.3,46.6,30.09,South,190,0.0,8.0,75,0.00,,,0.00,111.0,WUHU216DAVISVP2,2013-05-22 13:48:00,
2013-05-22 14:53:00,54.5,46.7,30.09,SW,234,1.0,8.0,75,0.00,,,0.00,114.0,WUHU216DAVISVP2,2013-05-22 13:53:00,
2013-05-22 14:58:00,54.8,47.1,30.09,SSW,194,7.0,8.0,75,0.00,,,0.00,111.0,WUHU216DAVISVP2,2013-05-22 13:58:00,
2013-05-22 15:03:00,55.0,47.3,30.09,SSW,213,1.0,8.0,75,0.00,,,0.00,56.0,WUHU216DAVISVP2,2013-05-22 14:03:00,
2013-05-22 15:08:00,55.0,46.5,30.09,WNW,286,0.0,8.0,73,0.00,,,0.00,58.0,WUHU216DAVISVP2,2013-05-22 14:08:00,
2013-05-22 15:13:00,54.9,46.5,30.09,SSE,155,4.0,9.0,73,0.00,,,0.00,84.0,WUHU216DAVISVP2,2013-05-22 14:13:00,
2013-05-22 15:18:00,54.8,46.4,30.09,South,186,2.0,9.0,73,0.00,,,0.00,118.0,WUHU216DAVISVP2,2013-05-22 14:18:00,
2013-05-22 15:23:00,54.9,46.8,30.08,East,98,0.0,9.0,74,0.00,,,0.00,69.0,WUHU216DAVISVP2,2013-05-22 14:23:00,
2013-05-22 15:28:00,55.0,46.9,30.08,West,259,0.0,9.0,74,0.00,,,0.00,95.0,WUHU216DAVISVP2,2013-05-22 14:28:00,
2013-05-22 15:33:00,55.0,46.6,30.08,SSW,211,1.0,7.0,73,0.00,,,0.00,81.0,WUHU216DAVISVP2,2013-05-22 14:33:00,
2013-05-22 15:38:00,55.1,46.3,30.08,South,174,0.0,7.0,72,0.00,,,0.00,83.0,WUHU216DAVISVP2,2013-05-22 14:38:00,
2013-05-22 15:43:00,55.1,46.3,30.08,SW,229,4.0,7.0,72,0.00,,,0.00,104.0,WUHU216DAVISVP2,2013-05-22 14:43:00,
2013-05-22 15:48:00,55.1,46.7,30.08,SSW,197,5.0,7.0,73,0.00,,,0.00,105.0,WUHU216DAVISVP2,2013-05-22 14:48:00,
2013-05-22 15:53:00,55.3,46.9,30.07,SW,217,1.0,7.0,73,0.00,,,0.00,125.0,WUHU216DAVISVP2,2013-05-22 14:53:00,
2013-05-22 15:58:00,55.5,46.4,30.07,SSE,153,4.0,9.0,71,0.00,,,0.00,125.0,WUHU216DAVISVP2,2013-05-22 14:58:00,
2013-05-22 16:04:00,55.8,46.3,30.07,SSW,193,1.0,9.0,70,0.00,,,0.00,155.0,WUHU216DAVISVP2,2013-05-22 15:04:00,
2013-05-22 16:09:00,56.0,46.5,30.07,South,180,0.0,9.0,70,0.00,,,0.00,134.0,WUHU216DAVISVP2,2013-05-22 15:09:00,
2013-05-22 16:14:00,56.3,46.4,30.07,SSW,194,4.0,8.0,69,0.00,,,0.00,142.0,WUHU216DAVISVP2,2013-05-22 15:14:00,
2013-05-22 16:19:00,56.5,46.2,30.07,South,169,0.0,8.0,68,0.00,,,0.00,155.0,WUHU216DAVISVP2,2013-05-22 15:19:00,
2013-05-22 16:24:00,56.7,45.6,30.07,SE,136,0.0,8.0,66,0.00,,,0.00,128.0,WUHU216DAVISVP2,2013-05-22 15:24:00,
2013-05-22 16:29:00,57.2,46.5,30.06,SW,219,2.0,8.0,67,0.00,,,0.00,181.0,WUHU216DAVISVP2,2013-05-22 15:29:00,
2013-05-22 16:34:00,57.7,45.2,30.06,SW,232,4.0,8.0,63,0.00,,,0.00,114.0,WUHU216DAVISVP2,2013-05-22 15:34:00,
2013-05-22 16:39:00,57.8,44.9,30.06,South,173,4.0,12.0,62,0.00,,,0.00,118.0,WUHU216DAVISVP2,2013-05-22 15:39:00,
2013-05-22 16:44:00,58.0,45.2,30.06,South,180,0.0,12.0,62,0.00,,,0.00,139.0,WUHU216DAVISVP2,2013-05-22 15:44:00,
2013-05-22 16:49:00,58.2,44.9,30.06,WNW,292,0.0,12.0,61,0.00,,,0.00,142.0,WUHU216DAVISVP2,2013-05-22 15:49:00,
2013-05-22 16:54:00,58.2,42.7,30.06,SW,225,0.0,12.0,56,0.00,,,0.00,95.0,WUHU216DAVISVP2,2013-05-22 15:54:00,
2013-05-22 16:59:00,57.9,42.9,30.06,South,178,0.0,8.0,57,0.00,,,0.00,88.0,WUHU216DAVISVP2,2013-05-22 15:59:00,
2013-05-22 17:04:00,57.7,43.5,30.06,South,171,2.0,9.0,59,0.00,,,0.00,113.0,WUHU216DAVISVP2,2013-05-22 16:04:00,
2013-05-22 17:09:00,57.5,42.4,30.06,SSE,166,3.0,13.0,57,0.00,,,0.00,167.0,WUHU216DAVISVP2,2013-05-22 16:09:00,
2013-05-22 17:14:00,57.7,44.0,30.05,SSE,148,1.0,13.0,60,0.00,,,0.00,142.0,WUHU216DAVISVP2,2013-05-22 16:14:00,
2013-05-22 17:19:00,58.4,44.2,30.05,South,171,8.0,13.0,59,0.00,,,0.00,591.0,WUHU216DAVISVP2,2013-05-22 16:19:00,
2013-05-22 17:24:00,58.7,43.6,30.05,SE,129,0.0,13.0,57,0.00,,,0.00,125.0,WUHU216DAVISVP2,2013-05-22 16:24:00,
2013-05-22 17:29:00,58.6,43.0,30.05,South,169,0.0,10.0,56,0.00,,,0.00,104.0,WUHU216DAVISVP2,2013-05-22 16:29:00,
2013-05-22 17:34:00,58.5,43.3,30.05,South,175,1.0,10.0,57,0.00,,,0.00,568.0,WUHU216DAVISVP2,2013-05-22 16:34:00,
2013-05-22 17:39:00,58.8,43.6,30.05,South,173,2.0,10.0,57,0.00,,,0.00,529.0,WUHU216DAVISVP2,2013-05-22 16:39:00,
2013-05-22 17:44:00,59.1,43.0,30.05,SSW,194,1.0,10.0,55,0.00,,,0.00,60.0,WUHU216DAVISVP2,2013-05-22 16:44:00,
2013-05-22 17:49:00,59.0,42.9,30.05,SW,236,1.0,8.0,55,0.00,,,0.00,149.0,WUHU216DAVISVP2,2013-05-22 16:49:00,
2013-05-22 17:54:00,58.7,42.2,30.05,South,175,4.0,8.0,54,0.00,,,0.00,91.0,WUHU216DAVISVP2,2013-05-22 16:54:00,
2013-05-22 17:59:00,58.5,41.9,30.05,South,180,3.0,9.0,54,0.00,,,0.00,62.0,WUHU216DAVISVP2,2013-05-22 16:59:00,
2013-05-22 18:04:00,58.2,41.2,30.05,SW,217,4.0,9.0,53,0.00,,,0.00,81.0,WUHU216DAVISVP2,2013-05-22 17:04:00,
2013-05-22 18:09:00,57.8,41.8,30.05,South,173,2.0,9.0,55,0.00,,,0.00,67.0,WUHU216DAVISVP2,2013-05-22 17:09:00,
2013-05-22 18:14:00,57.5,40.5,30.05,SW,221,3.0,12.0,53,0.00,,,0.00,72.0,WUHU216DAVISVP2,2013-05-22 17:14:00,
2013-05-22 18:19:00,57.2,41.2,30.05,South,188,5.0,12.0,55,0.00,,,0.00,72.0,WUHU216DAVISVP2,2013-05-22 17:19:00,
2013-05-22 18:24:00,56.8,40.3,30.04,SSW,210,2.0,13.0,54,0.00,,,0.00,62.0,WUHU216DAVISVP2,2013-05-22 17:24:00,
2013-05-22 18:29:00,56.5,41.1,30.04,South,190,1.0,13.0,56,0.00,,,0.00,169.0,WUHU216DAVISVP2,2013-05-22 17:29:00,
2013-05-22 18:34:00,56.5,40.6,30.04,South,188,5.0,13.0,55,0.00,,,0.00,54.0,WUHU216DAVISVP2,2013-05-22 17:34:00,
2013-05-22 18:39:00,56.6,40.2,30.04,South,178,3.0,13.0,54,0.00,,,0.00,62.0,WUHU216DAVISVP2,2013-05-22 17:39:00,
2013-05-22 18:44:00,56.5,40.1,30.04,SSW,205,2.0,10.0,54,0.00,,,0.00,60.0,WUHU216DAVISVP2,2013-05-22 17:44:00,
2013-05-22 18:49:00,56.4,40.5,30.04,SSW,198,4.0,10.0,55,0.00,,,0.00,56.0,WUHU216DAVISVP2,2013-05-22 17:49:00,
2013-05-22 18:54:00,56.2,40.3,30.04,South,186,5.0,10.0,55,0.00,,,0.00,54.0,WUHU216DAVISVP2,2013-05-22 17:54:00,
2013-05-22 18:59:00,56.0,39.6,30.04,SSE,150,5.0,10.0,54,0.00,,,0.00,51.0,WUHU216DAVISVP2,2013-05-22 17:59:00,
2013-05-22 19:04:00,55.8,39.0,30.04,South,180,5.0,10.0,53,0.00,,,0.00,49.0,WUHU216DAVISVP2,2013-05-22 18:04:00,
2013-05-22 19:09:00,55.6,39.3,30.04,SSE,149,4.0,10.0,54,0.00,,,0.00,46.0,WUHU216DAVISVP2,2013-05-22 18:09:00,
2013-05-22 19:14:00,55.3,39.5,30.04,South,184,4.0,10.0,55,0.00,,,0.00,44.0,WUHU216DAVISVP2,2013-05-22 18:14:00,
2013-05-22 19:19:00,55.1,39.3,30.04,SE,144,5.0,10.0,55,0.00,,,0.00,42.0,WUHU216DAVISVP2,2013-05-22 18:19:00,
2013-05-22 19:24:00,54.9,39.6,30.04,South,180,1.0,10.0,56,0.00,,,0.00,40.0,WUHU216DAVISVP2,2013-05-22 18:24:00,
2013-05-22 19:29:00,54.6,39.3,30.04,South,184,2.0,10.0,56,0.00,,,0.00,37.0,WUHU216DAVISVP2,2013-05-22 18:29:00,
2013-05-22 19:34:00,54.5,39.7,30.04,SSW,200,3.0,10.0,57,0.00,,,0.00,37.0,WUHU216DAVISVP2,2013-05-22 18:34:00,
2013-05-22 19:39:00,54.3,39.5,30.04,South,179,4.0,10.0,57,0.00,,,0.00,33.0,WUHU216DAVISVP2,2013-05-22 18:39:00,
2013-05-22 19:44:00,54.1,38.8,30.04,SSW,195,1.0,10.0,56,0.00,,,0.00,32.0,WUHU216DAVISVP2,2013-05-22 18:44:00,
2013-05-22 19:49:00,53.8,38.5,30.04,South,177,3.0,10.0,56,0.00,,,0.00,28.0,WUHU216DAVISVP2,2013-05-22 18:49:00,
2013-05-22 19:54:00,53.5,37.8,30.04,SE,140,0.0,11.0,55,0.00,,,0.00,26.0,WUHU216DAVISVP2,2013-05-22 18:54:00,
2013-05-22 19:59:00,53.2,37.5,30.04,SSW,213,1.0,11.0,55,0.00,,,0.00,28.0,WUHU216DAVISVP2,2013-05-22 18:59:00,
2013-05-22 20:04:00,53.1,38.3,30.04,SSW,211,0.0,11.0,57,0.00,,,0.00,26.0,WUHU216DAVISVP2,2013-05-22 19:04:00,
2013-05-22 20:09:00,52.9,38.2,30.04,SE,132,1.0,11.0,57,0.00,,,0.00,26.0,WUHU216DAVISVP2,2013-05-22 19:09:00,
2013-05-22 20:14:00,52.7,38.4,30.04,South,173,0.0,10.0,58,0.00,,,0.00,14.0,WUHU216DAVISVP2,2013-05-22 19:14:00,
2013-05-22 20:19:00,52.6,38.3,30.04,SSW,211,0.0,6.0,58,0.00,,,0.00,14.0,WUHU216DAVISVP2,2013-05-22 19:19:00,
2013-05-22 20:24:00,52.4,38.6,30.04,South,178,1.0,7.0,59,0.00,,,0.00,14.0,WUHU216DAVISVP2,2013-05-22 19:24:00,
2013-05-22 20:29:00,52.2,38.8,30.04,SSW,192,1.0,7.0,60,0.00,,,0.00,12.0,WUHU216DAVISVP2,2013-05-22 19:29:00,
2013-05-22 20:34:00,52.0,38.2,30.04,SSW,192,6.0,7.0,59,0.00,,,0.00,7.0,WUHU216DAVISVP2,2013-05-22 19:34:00,
2013-05-22 20:39:00,51.7,37.9,30.04,South,180,0.0,8.0,59,0.00,,,0.00,5.0,WUHU216DAVISVP2,2013-05-22 19:39:00,
2013-05-22 20:44:00,51.5,37.3,30.05,SSE,168,3.0,8.0,58,0.00,,,0.00,0.0,WUHU216DAVISVP2,2013-05-22 19:44:00,
2013-05-22 20:49:00,51.3,37.5,30.05,SSW,201,4.0,8.0,59,0.00,,,0.00,0.0,WUHU216DAVISVP2,2013-05-22 19:49:00,
2013-05-22 20:54:00,51.0,37.3,30.05,WSW,248,0.0,7.0,59,0.00,,,0.00,0.0,WUHU216DAVISVP2,2013-05-22 19:54:00,
2013-05-22 20:59:00,50.8,36.6,30.05,South,190,0.0,9.0,58,0.00,,,0.00,0.0,WUHU216DAVISVP2,2013-05-22 19:59:00,
2013-05-22 21:04:00,50.6,36.9,30.05,South,190,2.0,9.0,59,0.00,,,0.00,0.0,WUHU216DAVISVP2,2013-05-22 20:04:00,
2013-05-22 21:09:00,50.3,36.6,30.05,South,178,2.0,9.0,59,0.00,,,0.00,0.0,WUHU216DAVISVP2,2013-05-22 20:09:00,
2013-05-22 21:14:00,50.1,36.8,30.05,SSW,193,1.0,9.0,60,0.00,,,0.00,0.0,WUHU216DAVISVP2,2013-05-22 20:14:00,
2013-05-22 21:19:00,49.8,36.9,30.05,SE,146,3.0,6.0,61,0.00,,,0.00,0.0,WUHU216DAVISVP2,2013-05-22 20:19:00,
2013-05-22 21:24:00,49.5,36.7,30.05,SSW,198,2.0,6.0,61,0.00,,,0.00,0.0,WUHU216DAVISVP2,2013-05-22 20:24:00,
2013-05-22 21:29:00,49.3,36.5,30.05,SSE,166,0.0,10.0,61,0.00,,,0.00,0.0,WUHU216DAVISVP2,2013-05-22 20:29:00,
2013-05-22 21:34:00,49.1,36.6,30.05,SSW,205,1.0,10.0,62,0.00,,,0.00,0.0,WUHU216DAVISVP2,2013-05-22 20:34:00,
2013-05-22 21:39:00,48.9,36.5,30.05,SSW,203,1.0,10.0,62,0.00,,,0.00,0.0,WUHU216DAVISVP2,2013-05-22 20:39:00,
2013-05-22 21:44:00,48.7,36.8,30.05,South,186,0.0,10.0,63,0.00,,,0.00,0.0,WUHU216DAVISVP2,2013-05-22 20:44:00,
2013-05-22 21:49:00,48.5,36.5,30.05,South,191,2.0,6.0,63,0.00,,,0.00,0.0,WUHU216DAVISVP2,2013-05-22 20:49:00,
2013-05-22 21:54:00,48.3,36.3,30.05,SSW,200,0.0,6.0,63,0.00,,,0.00,0.0,WUHU216DAVISVP2,2013-05-22 20:54:00,
2013-05-22 21:59:00,48.2,36.7,30.04,SE,124,1.0,5.0,64,0.00,,,0.00,0.0,WUHU216DAVISVP2,2013-05-22 20:59:00,
2013-05-22 22:04:00,48.0,36.5,30.04,SE,142,0.0,5.0,64,0.00,,,0.00,0.0,WUHU216DAVISVP2,2013-05-22 21:04:00,
2013-05-22 22:09:00,47.9,36.4,30.04,SW,233,1.0,7.0,64,0.00,,,0.00,0.0,WUHU216DAVISVP2,2013-05-22 21:09:00,
2013-05-22 22:14:00,47.7,36.6,30.04,South,178,1.0,8.0,65,0.00,,,0.00,0.0,WUHU216DAVISVP2,2013-05-22 21:14:00,
2013-05-22 22:19:00,47.6,36.1,30.04,SW,221,2.0,8.0,64,0.00,,,0.00,0.0,WUHU216DAVISVP2,2013-05-22 21:19:00,
2013-05-22 22:24:00,47.5,35.9,30.04,South,182,3.0,8.0,64,0.00,,,0.00,0.0,WUHU216DAVISVP2,2013-05-22 21:24:00,
2013-05-22 22:29:00,47.4,36.2,30.04,SSE,165,2.0,8.0,65,0.00,,,0.00,0.0,WUHU216DAVISVP2,2013-05-22 21:29:00,
2013-05-22 22:34:00,47.3,35.7,30.04,SW,222,2.0,8.0,64,0.00,,,0.00,0.0,WUHU216DAVISVP2,2013-05-22 21:34:00,
2013-05-22 22:39:00,47.3,35.7,30.04,SW,217,4.0,9.0,64,0.00,,,0.00,0.0,WUHU216DAVISVP2,2013-05-22 21:39:00,
2013-05-22 22:44:00,47.3,35.8,30.04,SSW,192,3.0,9.0,64,0.00,,,0.00,0.0,WUHU216DAVISVP2,2013-05-22 21:44:00,
2013-05-22 22:49:00,47.3,35.7,30.04,South,188,4.0,9.0,64,0.00,,,0.00,0.0,WUHU216DAVISVP2,2013-05-22 21:49:00,
2013-05-22 22:54:00,47.2,35.7,30.04,South,178,2.0,9.0,64,0.00,,,0.00,0.0,WUHU216DAVISVP2,2013-05-22 21:54:00,
2013-05-22 22:59:00,47.1,35.9,30.03,South,184,0.0,8.0,65,0.00,,,0.00,0.0,WUHU216DAVISVP2,2013-05-22 21:59:00,
2013-05-22 23:04:00,46.9,35.7,30.03,SSW,196,0.0,5.0,65,0.00,,,0.00,0.0,WUHU216DAVISVP2,2013-05-22 22:04:00,
2013-05-22 23:09:00,46.7,35.6,30.03,SSE,166,0.0,5.0,65,0.00,,,0.00,0.0,WUHU216DAVISVP2,2013-05-22 22:09:00,
2013-05-22 23:14:00,46.5,35.9,30.03,South,171,2.0,5.0,66,0.00,,,0.00,0.0,WUHU216DAVISVP2,2013-05-22 22:14:00,
2013-05-22 23:19:00,46.3,35.6,30.03,SW,217,0.0,5.0,66,0.00,,,0.00,0.0,WUHU216DAVISVP2,2013-05-22 22:19:00,
2013-05-22 23:24:00,46.2,35.9,30.03,SW,230,5.0,6.0,67,0.00,,,0.00,0.0,WUHU216DAVISVP2,2013-05-22 22:24:00,
2013-05-22 23:29:00,46.0,35.8,30.02,SSE,164,3.0,8.0,67,0.00,,,0.00,0.0,WUHU216DAVISVP2,2013-05-22 22:29:00,
2013-05-22 23:34:00,46.0,35.7,30.02,South,189,4.0,8.0,67,0.00,,,0.00,0.0,WUHU216DAVISVP2,2013-05-22 22:34:00,
2013-05-22 23:39:00,45.9,35.6,30.02,SW,215,0.0,8.0,67,0.00,,,0.00,0.0,WUHU216DAVISVP2,2013-05-22 22:39:00,
2013-05-22 23:44:00,45.9,35.7,30.02,South,191,0.0,8.0,67,0.00,,,0.00,0.0,WUHU216DAVISVP2,2013-05-22 22:44:00,
2013-05-22 23:49:00,45.8,35.6,30.02,South,184,1.0,7.0,67,0.00,,,0.00,0.0,WUHU216DAVISVP2,2013-05-22 22:49:00,
2013-05-22 23:54:00,45.7,35.5,30.02,South,185,0.0,7.0,67,0.00,,,0.00,0.0,WUHU216DAVISVP2,2013-05-22 22:54:00,
2013-05-22 23:59:00,45.6,35.3,30.02,SSW,200,0.0,5.0,67,0.00,,,0.00,0.0,WUHU216DAVISVP2,2013-05-22 22:59:00,